Flag for U.S.A. Weather past 2 weeks in Bloomington, Illinois, U.S.A.

Now
68 °F

Sunny.


Feels Like: 68 °F
Forecast: 35 / 67 °F
Wind: 12 mph from Southeast

Location: Bloomington / Normal


UV Index: 5 (Moderate)

Visibility: 10 mi


Pressure: 30.22 "Hg

Humidity: 27%

Dew point: 33 °F

Location of BloomingtonLocation

Historic Weather in Bloomington

°F

Bloomington temperature yesterday

Maximum temperature yesterday: 65 °F (at 4:56 PM)
Minimum temperature yesterday: 39 °F (at 11:56 PM)
Average temperature yesterday: 51 °F

Past Weeks' High & Low Weather Summary

 TemperatureHumidityPressure
High77 °F (Apr 12, 1:56 PM)96% (Apr 14, 5:56 PM)30.36 "Hg (Apr 14, 5:56 PM)
Low25 °F (Apr 15, 6:56 AM)17% (Apr 11, 2:56 PM)29.41 "Hg (Apr 14, 12:56 AM)
Average48 °F60%30.01 "Hg
* Reported Apr 4 5:56 PM — Apr 19 5:56 PM, Bloomington, Weather by CustomWeather, © 2014

Note: Actual official high and low records may vary slightly from our data, if they occured in-between our weather recording intervals... More about our weather records

Advertising

Historic Weather Conditions — Data for Previous 24 hours

 ConditionsComfort  
Time TempWeatherWind HumidityBarometerVisibility
5:56 PM
Apr 19
68 °FSunny.12 mph27%30.22 "Hg10 mi
4:56 PM70 °FSunny.8 mph24%30.23 "Hg10 mi
3:56 PM71 °FSunny.6 mph24%30.25 "Hg10 mi
2:56 PM70 °FSunny.12 mph25%30.26 "Hg10 mi
1:56 PM69 °FSunny.8 mph25%30.28 "Hg10 mi
12:56 PM67 °FSunny.10 mph27%30.30 "Hg10 mi
11:56 AM64 °FSunny.9 mph29%30.33 "Hg10 mi
10:56 AM61 °FSunny.14 mph32%30.33 "Hg10 mi
9:56 AM56 °FSunny.12 mph36%30.34 "Hg10 mi
8:56 AM50 °FSunny.10 mph50%30.34 "Hg10 mi
7:56 AM40 °FSunny.9 mph68%30.36 "Hg10 mi
6:56 AM32 °FClear.9 mph82%30.35 "Hg10 mi
5:56 AM31 °FClear.9 mph79%30.33 "Hg10 mi
4:56 AM32 °FClear.9 mph79%30.32 "Hg10 mi
3:56 AM33 °FClear.10 mph76%30.32 "Hg10 mi
2:56 AM34 °FClear.10 mph76%30.33 "Hg10 mi
1:56 AM36 °FClear.12 mph73%30.34 "Hg10 mi
12:56 AM38 °FClear.14 mph73%30.34 "Hg10 mi
11:56 PM
Apr 18
39 °FClear.15 mph79%30.35 "Hg10 mi
10:56 PM42 °FClear.14 mph74%30.34 "Hg10 mi
9:56 PM46 °FClear.12 mph68%30.32 "Hg10 mi
8:56 PM50 °FClear.12 mph63%30.29 "Hg10 mi
7:56 PM54 °FSunny.7 mph35%30.27 "Hg10 mi
6:56 PM61 °FSunny.9 mph28%30.26 "Hg10 mi
Weather by CustomWeather, © 2014

See weather overview